Temperature
11 11 11 11 11 11 11 11 11 11 11 11 11 11 11 11 11 11 11 11 11 11 11 11 11 11 11 11 11 11 11 11 11 11 11 11 11 11 11 11 11 10 10
11 11 11 11 11 11 11 11 11 11 11 11 11 11 10 10 10 11 11 11 11 11 11 11 11 11 11 11 11 11 11 10 10 10 10 10 10 10 10 10 10 10 10
11 11 11 10 10 10 10 10 10 10 10 10 10 10 10 10 10 10 10 10 10 11 11 11 10 10 10 10 10 10 10 10 10 10 10 10 10 10 10 10 10 10 9
10 10 10 10 10 10 10 10 10 10 10 10 10 10 10 10 10 10 10 10 10 10 10 10 10 10 10 10 10 10 10 10 10 9 9 9 9 9 9 9 9 9 9
10 10 10 10 10 10 9 9 9 9 9 9 9 9 9 9 9 9 9 9 9 9 9 10 10 10 10 9 10 9 9 10 9 9 9 9 9 9 9 9 9 9 9
10 10 9 9 9 9 9 9 9 9 9 9 9 9 9 9 9 9 9 9 9 9 9 9 9 9 9 9 9 9 9 9 9 9 9 9 9 9 8 8 8 8 8
9 9 9 9 9 9 9 9 9 8 8 8 8 8 8 8 8 8 8 8 8 8 8 8 8 9 9 9 9 9 9 9 8 8 8 8 8 8 8 8 8 8 8
9 9 9 9 9 9 8 8 8 8 8 8 7 7 7 7 7 7 7 8 8 8 8 8 8 8 8 8 8 8 8 8 8 8 8 8 8 8 8 8 8 8 8
9 9 9 8 8 8 8 8 8 8 8 7 7 7 7 7 6 7 7 7 7 7 7 7 7 7 7 7 8 8 8 8 7 7 7 7 7 7 7 7 7 7 7
8 8 8 8 8 8 8 8 8 8 8 7 7 7 7 7 7 6 6 6 6 6 6 7 7 7 7 7 7 7 7 7 7 7 7 7 7 7 7 7 7 7 7
8 8 8 8 8 7 7 7 7 7 7 7 7 7 7 7 7 6 5 6 6 6 6 6 6 6 6 6 6 7 7 7 7 6 6 6 7 7 7 7 7 6 6
8 8 7 7 7 7 7 7 7 7 7 7 7 7 6 6 6 6 6 5 5 5 5 6 6 6 6 6 6 6 6 6 6 6 6 6 6 6 6 6 6 6 6
7 7 7 7 7 7 7 7 7 7 7 7 6 6 6 6 6 6 6 5 5 5 5 5 5 5 5 5 6 6 6 6 6 6 6 6 6 6 6 6 6 6 6
7 7 7 7 7 6 6 6 6 6 6 6 6 6 6 6 6 6 6 5 4 4 4 5 5 5 5 5 5 5 5 5 5 5 5 5 5 5 5 6 5 5 5
6 6 6 6 6 6 6 6 6 6 6 6 6 6 6 6 5 5 5 5 5 4 4 4 4 5 4 4 5 5 5 5 5 5 5 5 5 5 5 5 5 5 5
6 6 6 6 6 6 6 6 6 6 6 6 5 5 5 5 5 5 5 5 5 5 4 4 4 4 4 4 4 4 4 4 4 4 4 4 4 4 4 4 4 4 4
5 5 5 5 5 5 5 5 5 5 5 5 5 5 5 5 5 5 4 4 4 4 4 4 4 4 4 4 4 4 4 4 4 4 4 4 4 4 4 3 3 3 3
5 5 5 5 5 5 5 5 5 5 5 5 5 5 5 4 4 4 4 4 4 4 4 3 3 3 3 3 3 3 3 3 3 3 3 3 3 3 3 3 3 3 3
4 4 4 4 4 4 4 4 4 4 4 4 4 4 4 4 4 4 4 4 3 3 3 3 3 3 3 3 3 3 3 3 3 3 3 3 2 2 2 2 2 2 2
4 4 4 4 4 4 4 4 4 4 4 4 4 4 4 4 4 3 3 3 3 3 3 3 3 2 2 2 2 2 2 3 3 2 2 2 2 2 2 2 2 2 2
3 3 3 3 3 3 3 3 3 3 3 3 3 3 3 3 3 3 3 3 3 3 2 2 2 2 2 2 2 2 2 2 2 2 2 2 1 2 1 1 1 1 1
2 2 2 3 3 3 3 3 3 3 3 3 3 3 3 3 3 2 2 2 2 2 2 2 2 2 2 2 2 1 1 1 1 1 1 1 1 1 1 1 1 0 0
1 2 2 2 2 2 2 2 2 2 2 2 2 2 2 2 2 2 2 2 2 2 2 2 2 2 2 1 1 1 1 1 1 1 0 1 1 1 1 0 0 -0 -0
1 1 1 1 1 2 2 2 1 1 2 2 2 1 1 1 2 2 2 2 1 1 1 1 1 1 1 1 1 1 0 0 0 -0 -0 -0 0 -0 -0 -0 -0 -0 -1
0 0 0 1 1 1 1 1 1 1 1 1 1 1 1 1 1 1 1 1 1 1 1 1 0 0 0 0 0 -0 -0 -0 -0 -0 -1 -1 -1 -1 -1 -0 -1 -1 -1
-0 -0 -0 -0 0 0 0 0 0 0 0 0 0 0 1 1 1 1 1 1 1 1 0 0 -0 -0 -0 -0 -0 -1 -1 -1 -1 -1 -1 -1 -1 -2 -2 -1 -1 -1 -1
Wind_Speed
1 2 2 2 2 2 2 2 2 2 2 2 2 3 3 4 4 5 5 6 5 4 4 5 5 6 6 6 6 7 7 7 7 7 7 7 7 6 6 6 7 8 8
2 2 2 2 2 2 2 3 3 2 2 2 3 4 4 5 5 6 6 5 5 5 4 5 5 5 5 5 6 6 6 6 6 6 6 6 5 5 5 5 6 6 7
3 2 2 1 1 2 3 3 3 3 3 3 3 3 4 5 5 5 6 5 5 5 4 4 4 5 4 4 5 5 5 5 5 5 5 5 5 5 5 5 5 5 5
3 3 2 1 1 2 2 2 2 2 2 2 2 2 3 4 4 4 5 5 5 5 5 4 3 4 4 4 4 4 4 5 5 4 5 5 5 4 4 4 4 4 3
3 3 2 2 2 2 2 2 2 2 3 3 2 2 2 2 2 3 5 5 5 5 5 4 4 3 3 3 3 3 4 4 4 4 4 4 4 3 3 3 4 3 3
3 3 2 2 2 2 2 2 2 2 3 3 3 3 2 1 2 3 3 4 4 4 5 5 5 4 4 3 3 3 3 3 3 3 3 3 3 3 3 3 3 2 2
3 3 2 2 2 2 2 2 3 3 2 2 3 2 2 2 2 2 3 3 4 4 5 5 5 5 4 4 3 3 3 3 3 3 3 2 2 3 3 3 3 2 2
3 2 2 2 2 2 2 3 3 2 1 1 2 2 1 2 2 2 2 2 3 3 4 4 5 4 4 4 3 2 2 2 2 2 2 2 2 3 3 3 4 3 2
3 2 3 3 2 2 2 3 3 3 3 1 1 2 2 2 0 1 1 1 2 2 2 3 4 3 3 4 3 2 0 1 2 2 3 3 3 3 4 3 3 4 3
4 3 3 3 3 2 2 3 3 3 4 3 1 0 1 3 2 0 1 1 0 1 1 1 2 2 2 3 3 1 0 1 2 2 3 3 3 3 4 4 3 3 4
4 4 3 3 3 3 3 3 3 3 3 3 2 1 1 1 1 2 2 1 1 1 0 1 2 1 1 2 2 1 1 2 3 4 4 4 3 3 4 4 4 4 4
3 4 4 3 3 3 3 3 3 3 3 3 3 2 2 2 2 1 2 2 2 2 1 0 1 2 2 2 2 2 2 2 3 4 4 5 4 4 4 4 4 4 4
2 3 3 3 3 3 4 3 3 3 3 4 3 2 2 2 2 1 2 1 1 1 1 1 1 3 3 3 3 3 3 3 4 4 4 5 4 4 5 5 5 5 5
2 3 4 4 4 3 4 4 3 4 3 3 3 3 2 2 1 2 2 2 1 2 1 2 1 2 3 3 3 3 3 3 3 4 4 4 4 4 4 5 6 6 5
2 3 3 3 3 4 3 4 3 4 4 4 4 3 3 2 2 2 2 3 3 2 3 3 2 2 2 2 2 3 3 3 3 4 4 4 4 4 4 4 5 5 5
2 3 3 4 4 4 4 4 4 4 4 4 4 4 3 3 3 2 2 2 2 3 3 2 2 1 2 2 2 2 2 2 3 4 4 4 4 5 4 5 5 5 5
2 3 3 4 4 4 4 4 4 5 5 4 4 4 4 3 3 3 2 2 2 2 3 2 1 1 1 1 1 2 2 2 3 4 4 5 5 5 6 6 6 6 6
2 2 3 3 4 4 4 4 4 5 5 5 5 4 4 3 3 3 3 3 3 3 3 2 1 1 2 2 1 1 2 2 3 4 5 6 6 6 6 6 6 7 6
2 2 2 3 3 4 4 4 4 4 4 5 5 5 5 5 4 3 3 3 3 2 2 3 2 1 1 1 1 1 1 2 3 4 5 7 7 7 7 7 7 7 7
2 2 2 2 3 3 3 3 4 3 4 4 4 5 5 6 6 5 4 4 3 3 3 3 2 2 1 1 1 1 2 2 2 3 4 5 7 8 8 8 8 8 8
2 2 2 2 2 3 3 4 4 4 4 4 3 4 4 5 6 5 5 5 5 4 3 3 3 2 3 2 3 2 2 1 2 2 2 3 4 5 6 8 8 8 9
2 2 2 2 2 3 4 5 4 4 4 4 4 3 3 4 5 6 6 6 7 6 5 4 4 4 4 3 3 2 2 1 2 1 1 3 3 3 5 6 8 9 9
2 2 2 2 3 3 5 6 6 4 4 4 4 4 3 4 4 4 4 4 4 6 7 5 5 5 5 4 3 3 2 2 3 2 1 3 2 3 5 7 8 8 9
2 2 2 2 2 3 5 5 6 4 4 4 4 4 4 4 4 5 4 3 2 2 4 3 4 4 3 3 3 3 3 1 1 2 2 3 3 3 4 5 7 7 8
2 2 2 2 3 3 5 5 5 3 3 4 4 4 4 4 6 6 5 4 3 2 2 3 3 3 3 3 3 2 2 1 3 3 2 2 2 3 3 3 5 7 8
2 2 2 2 3 3 4 5 4 3 3 3 3 3 5 5 6 6 5 5 5 4 3 2 1 1 1 2 2 2 3 3 2 3 2 1 1 1 3 3 3 5 7
Wind_Direction
99 93 95 109 118 118 111 113 107 88 82 82 81 80 76 83 81 82 84 94 104 112 133 144 142 134 135 132 129 128 129 129 126 123 119 114 109 108 108 106 103 96 93
98 95 87 73 78 103 106 106 115 108 93 80 66 59 61 70 78 83 84 84 88 99 114 129 134 130 126 132 137 139 134 127 129 133 129 125 120 113 107 111 108 101 94
104 88 91 73 65 93 95 94 94 96 96 83 67 54 51 58 63 75 78 77 76 78 95 115 129 134 137 143 141 140 143 141 136 134 134 132 128 119 111 111 107 105 100
112 101 111 101 72 87 98 104 101 91 89 84 73 61 53 55 52 65 76 79 76 76 75 82 114 139 145 144 144 151 151 153 151 139 135 133 131 131 125 125 117 107 101
121 111 119 116 109 94 94 112 109 104 91 81 78 69 63 64 58 71 75 75 76 81 81 80 90 116 139 152 156 153 155 154 158 154 144 140 137 138 136 139 135 123 109
135 122 125 134 125 128 125 118 114 105 110 109 84 65 55 58 59 72 82 84 78 83 85 84 87 90 103 121 144 150 153 158 162 172 170 163 152 157 163 162 156 150 140
139 138 139 150 143 145 153 139 121 111 104 109 91 71 37 54 69 68 73 84 80 79 75 76 79 85 87 86 103 128 147 153 154 165 169 167 179 177 177 175 175 181 183
137 157 152 157 156 157 154 144 137 131 128 129 123 119 75 16 20 48 56 67 68 69 69 67 71 76 82 88 71 81 125 158 174 172 184 195 220 210 202 205 194 183 183
160 170 176 159 159 158 164 164 162 149 156 193 157 147 151 184 358 359 34 59 68 60 69 77 65 64 83 103 93 66 87 224 219 209 216 223 240 232 223 221 214 212 215
172 182 176 171 165 163 172 183 176 162 159 178 204 226 158 145 147 148 322 354 55 56 49 99 104 89 104 118 113 106 305 255 250 246 244 241 241 248 237 233 231 237 236
176 179 177 171 175 173 181 186 183 176 170 176 180 177 93 77 136 164 223 253 313 283 220 147 134 133 176 155 142 177 241 269 270 265 265 260 256 266 267 245 244 242 242
178 179 182 178 183 181 184 187 189 188 185 186 186 176 169 172 187 181 200 219 244 259 264 163 155 161 195 192 188 222 242 265 276 270 270 265 270 274 278 258 247 242 245
182 188 184 183 190 192 187 183 187 194 191 189 190 193 187 196 189 190 174 219 250 254 247 261 202 186 204 198 196 212 232 250 267 278 274 267 275 285 281 269 248 244 248
194 187 183 184 190 196 197 186 187 197 192 189 194 187 179 196 188 187 188 188 243 267 238 239 242 195 205 204 198 202 220 237 258 276 282 277 272 281 289 277 262 255 252
191 185 185 190 194 198 202 190 188 195 189 192 190 189 188 194 194 208 199 183 187 231 247 232 222 216 183 190 203 192 216 227 250 264 272 274 267 265 278 288 270 263 260
191 190 196 196 199 203 201 195 191 191 189 195 189 187 194 191 186 198 204 216 207 206 238 235 221 203 179 197 221 192 213 237 250 254 262 267 267 260 261 272 281 276 265
196 193 195 196 195 200 201 196 200 193 193 196 194 192 199 192 189 195 201 204 203 188 228 266 251 177 179 198 213 209 219 237 250 247 255 262 261 257 255 262 270 272 270
207 200 202 201 199 202 203 197 202 201 195 196 196 191 196 195 192 193 197 199 201 194 198 234 244 212 209 203 196 195 218 238 240 250 257 260 260 259 260 263 262 262 265
206 204 205 209 206 203 202 202 200 204 197 196 194 194 195 190 197 195 196 199 202 200 182 197 228 227 223 216 205 263 231 233 255 257 260 260 261 262 263 265 266 264 264
203 206 212 217 214 210 203 200 196 196 198 198 199 198 198 198 199 196 200 197 190 183 178 186 204 215 219 224 191 224 257 257 263 262 263 264 266 265 263 264 265 265 266
217 208 215 227 222 219 206 196 195 195 194 193 197 200 202 202 207 210 208 195 186 187 186 192 205 216 221 212 222 223 227 253 269 244 258 264 264 263 262 267 269 266 268
217 215 214 220 230 232 214 215 212 195 190 194 200 203 199 196 206 211 211 208 202 197 196 203 214 215 223 218 207 205 207 236 269 251 232 277 254 260 264 264 268 269 271
225 224 223 216 228 226 223 224 225 208 195 199 201 200 206 200 200 187 192 199 210 215 213 210 211 222 223 216 205 212 213 224 243 244 243 276 267 263 276 276 269 269 274
235 229 232 220 226 230 225 226 223 213 200 204 210 203 195 194 195 183 174 176 194 211 216 212 210 220 222 211 207 214 209 214 277 279 211 252 270 270 284 281 275 272 279
260 239 229 219 227 234 227 227 225 198 196 205 209 205 195 191 192 186 175 177 185 203 194 189 202 199 200 207 194 181 188 211 260 264 224 220 264 289 285 274 281 283 290
266 254 244 229 227 235 234 225 219 193 195 205 205 206 207 203 199 195 189 186 194 205 184 184 193 200 173 176 193 197 199 208 232 250 241 199 250 309 303 290 290 301 300
Height
1526 1526 1528 1529 1530 1531 1532 1534 1535 1536 1538 1539 1540 1542 1543 1544 1545 1546 1547 1548 1549 1550 1551 1552 1553 1554 1555 1556 1557 1558 1559 1560 1560 1561 1561 1562 1563 1563 1563 1564 1564 1564 1564
1524 1525 1526 1527 1528 1530 1531 1532 1534 1535 1536 1537 1539 1540 1541 1542 1543 1544 1545 1546 1547 1548 1549 1551 1552 1553 1554 1555 1556 1557 1558 1558 1559 1560 1560 1561 1561 1562 1562 1563 1563 1563 1563
1522 1523 1524 1526 1527 1528 1530 1531 1532 1533 1535 1536 1537 1538 1539 1541 1542 1543 1543 1544 1545 1546 1547 1549 1550 1551 1552 1553 1554 1555 1556 1557 1558 1558 1559 1559 1560 1561 1561 1561 1562 1562 1562
1521 1521 1523 1524 1525 1526 1528 1529 1530 1531 1533 1534 1535 1536 1538 1539 1540 1541 1542 1543 1544 1545 1546 1546 1548 1549 1550 1551 1552 1553 1554 1555 1556 1557 1557 1558 1558 1559 1559 1560 1560 1561 1561
1518 1519 1521 1522 1523 1524 1525 1527 1529 1530 1531 1532 1534 1535 1536 1537 1538 1539 1540 1541 1542 1543 1544 1544 1546 1547 1548 1549 1550 1551 1552 1552 1553 1555 1555 1556 1557 1557 1558 1558 1558 1559 1559
1516 1517 1518 1520 1521 1522 1523 1525 1526 1528 1529 1531 1532 1533 1534 1535 1536 1537 1538 1539 1540 1541 1541 1542 1543 1544 1545 1546 1547 1548 1549 1550 1551 1552 1553 1554 1554 1555 1555 1556 1556 1557 1557
1514 1515 1516 1517 1519 1520 1522 1523 1524 1526 1527 1529 1530 1531 1533 1534 1534 1535 1536 1537 1538 1539 1539 1540 1541 1542 1542 1544 1545 1546 1546 1547 1548 1549 1550 1551 1551 1552 1553 1553 1554 1554 1554
1511 1512 1513 1515 1516 1518 1519 1520 1522 1523 1525 1527 1528 1529 1531 1533 1533 1534 1535 1535 1536 1537 1538 1538 1538 1539 1540 1541 1542 1543 1544 1544 1545 1546 1547 1548 1549 1549 1550 1551 1551 1551 1551
1508 1510 1511 1512 1514 1515 1516 1518 1520 1521 1522 1525 1526 1528 1529 1529 1531 1532 1533 1534 1534 1535 1536 1537 1536 1537 1538 1538 1539 1540 1541 1542 1542 1543 1544 1545 1545 1546 1547 1547 1548 1548 1548
1505 1507 1508 1509 1511 1513 1514 1516 1517 1519 1520 1521 1523 1525 1527 1527 1528 1529 1531 1531 1532 1533 1533 1534 1534 1534 1535 1536 1536 1537 1538 1539 1540 1540 1541 1541 1542 1543 1543 1544 1544 1545 1545
1502 1503 1505 1506 1508 1509 1511 1513 1514 1515 1517 1518 1520 1521 1523 1524 1525 1526 1527 1528 1529 1530 1531 1531 1531 1532 1532 1533 1533 1534 1535 1536 1536 1537 1537 1538 1539 1539 1540 1540 1540 1541 1541
1499 1500 1502 1503 1505 1506 1508 1509 1511 1512 1514 1515 1516 1518 1519 1520 1522 1523 1523 1524 1525 1527 1527 1528 1528 1529 1529 1529 1530 1531 1532 1532 1533 1533 1534 1534 1534 1535 1535 1536 1536 1537 1537
1496 1497 1498 1500 1501 1503 1504 1506 1507 1509 1510 1511 1513 1514 1516 1517 1519 1520 1520 1520 1521 1522 1523 1524 1525 1525 1526 1526 1527 1527 1528 1529 1529 1530 1530 1530 1530 1531 1531 1532 1532 1533 1533
1492 1494 1495 1497 1498 1499 1501 1502 1504 1505 1506 1507 1509 1510 1512 1513 1515 1516 1517 1518 1518 1518 1519 1520 1521 1522 1522 1523 1523 1524 1524 1525 1525 1526 1526 1526 1527 1527 1527 1528 1528 1528 1528
1489 1490 1492 1493 1494 1495 1497 1498 1499 1501 1502 1504 1505 1506 1508 1509 1511 1512 1513 1514 1515 1514 1515 1516 1517 1518 1519 1519 1519 1520 1520 1521 1521 1522 1522 1523 1523 1523 1523 1523 1524 1524 1524
1485 1486 1488 1489 1490 1491 1493 1494 1495 1497 1498 1499 1501 1502 1503 1505 1506 1508 1509 1510 1511 1511 1511 1511 1512 1514 1515 1516 1516 1516 1517 1517 1517 1518 1518 1519 1519 1519 1519 1519 1519 1519 1520
1482 1483 1484 1485 1486 1487 1488 1490 1491 1492 1494 1495 1497 1498 1499 1501 1502 1503 1504 1505 1507 1508 1507 1507 1509 1510 1511 1512 1512 1513 1513 1514 1514 1514 1514 1514 1515 1515 1515 1515 1515 1515 1515
1478 1479 1480 1481 1482 1483 1484 1485 1486 1488 1489 1491 1492 1493 1495 1496 1497 1498 1499 1501 1502 1503 1504 1503 1504 1506 1507 1508 1508 1509 1510 1510 1510 1510 1511 1511 1511 1511 1511 1510 1510 1510 1510
1474 1475 1476 1476 1477 1478 1479 1480 1482 1483 1484 1486 1487 1489 1490 1491 1492 1493 1495 1496 1497 1498 1500 1500 1500 1502 1503 1504 1504 1505 1506 1506 1506 1506 1506 1506 1506 1506 1506 1505 1506 1506 1505
1469 1470 1471 1472 1473 1474 1475 1476 1477 1478 1480 1481 1483 1484 1485 1486 1487 1489 1490 1491 1492 1494 1495 1496 1497 1497 1498 1499 1500 1501 1501 1502 1502 1502 1502 1502 1502 1501 1501 1501 1501 1501 1500
1465 1466 1467 1468 1469 1470 1471 1472 1473 1474 1475 1476 1478 1479 1480 1482 1483 1485 1486 1487 1488 1489 1490 1491 1492 1493 1494 1495 1496 1497 1497 1497 1498 1498 1498 1498 1498 1497 1497 1497 1496 1496 1495
1461 1462 1463 1464 1465 1466 1467 1468 1469 1470 1471 1472 1473 1474 1476 1477 1478 1480 1481 1483 1484 1485 1486 1487 1488 1489 1490 1491 1492 1493 1493 1493 1493 1494 1494 1493 1493 1492 1492 1492 1491 1491 1490
1457 1457 1458 1459 1460 1461 1462 1464 1465 1466 1466 1467 1468 1470 1471 1472 1474 1476 1477 1478 1480 1481 1483 1484 1484 1484 1486 1487 1488 1488 1489 1489 1489 1489 1490 1488 1489 1488 1488 1487 1487 1486 1485
1453 1453 1454 1455 1456 1457 1458 1459 1460 1461 1462 1463 1464 1465 1467 1468 1470 1472 1473 1474 1475 1476 1478 1479 1480 1481 1482 1483 1484 1485 1485 1485 1485 1485 1485 1484 1484 1483 1483 1483 1482 1481 1480
1449 1449 1450 1450 1451 1452 1453 1455 1456 1456 1457 1458 1459 1461 1463 1464 1466 1467 1469 1469 1470 1471 1473 1474 1476 1477 1477 1478 1479 1480 1480 1480 1480 1480 1481 1480 1479 1478 1478 1477 1477 1476 1475
1445 1445 1446 1446 1447 1448 1449 1450 1451 1452 1452 1454 1455 1456 1458 1460 1461 1463 1464 1465 1465 1466 1468 1469 1470 1471 1472 1473 1474 1475 1476 1476 1475 1475 1475 1476 1475 1475 1473 1472 1472 1471 1470